星链-30994 (STARLINK-30994 )

导读 | 星芒AI

STARLINK-30994 是SpaceX星链计划中的一颗低轨通信卫星,属于第三代星链卫星(v1.5版本)。该卫星于2023年发射,运行在约540公里高度的近地轨道,旨在为全球用户提供高速互联网服务。它采用先进的推进系统和激光通信技术,具备更高的数据传输能力和更低的延迟。作为星链星座的一部分,STARLINK-30994 有助于扩大覆盖范围,提升网络稳定性,特别是在偏远和网络基础设施薄弱的地区。

基本信息
目录编号:
58483
目录名称:
STARLINK-30994
国际标识:
2023-186L
轨道中心:
EARTH
卫星名称:
星链-30994
卫星全名:
星链-30994 (STARLINK-30994 )
卫星状态:
在轨 (已飞行747 天)
发射日期:
2023-12-03 UTC
国别 :
美国 (US)
星等 :
--
轨道信息
数据来源 国际轨道数据
星历时间: 2025-12-19T09:33:15+0800
18小时前
查看轨道信息
半长轴: 6861.214km
偏心率: 0.0000763
轨道倾角: 43.003°
近地点辐角 260.465°
升交点赤经 355.494°
平近点角 99.612°
近地点: 482.553km
远地点: 483.601km
周期: 94.267分钟
每日圈数: 15.275709
详细信息
固有亮度:
5
最大亮度:
0.3
卫星平台:
Starlink v2.0 mini
覆盖范围:
全球
运营商:
太空探索技术公司
运营商所在国:
美国
制造商(研发单位):
太空探索技术公司
制造商所在国:
美国
使用方式:
暂无
卫星简介
星链(Starlink)计划是由太空探索技术公司(SpaceX)提出的一个巨型低轨卫星互联网星座项目,计划在2019年至2024年间在太空搭建由约1.2万颗卫星组成的“星链”网络,其中1584颗将部署在地球上空550千米处的近地轨道,并从2020年开始工作。该卫星仍在工作。
2D轨道图
3D轨道图
轨道高度分析图
轨道倾角分析图
轨道综合分析图
查看轨道综合分析图